User: anonymous   Login
Location: Contre
(49.7477°N, 2.0963°E)
Time: 19:14:02
(UTC+00:00)
Language:

DX 1 - Orbit

View from above orbital plane
View from above orbital plane
View from above satellite
View from above satellite

Ground track
Ground track

The orbit data is extracted from the following two-line orbital elements,

1 40071U 14037C   24147.52302106  .00002444  00000-0  29489-3 0  9993
2 40071  98.3352  59.0242 0007677 182.4357 177.6820 14.84780026534422
Epoch (UTC): 26 May 2024 12:33:09
Eccentricity: 0.0007677
inclination: 98.3352°
perigee height: 609 km
apogee height: 619 km
right ascension of ascending node: 59.0242°
argument of perigee: 182.4357°
revolutions per day: 14.84780026
mean anomaly at epoch: 177.6820°
orbit number at epoch: 53442

The dashed part of the orbit path shows where the satellite is in the earth's shadow,  

DLR